Miscellaneous Local Product
Issued by NWS Hastings, NE

Home | Current Version | Previous Version | Text Only | Print | Product List | Glossary Off
Versions: 1 2 3 4 5 6 7 8 9 10 11 12 13 14 15 16 17 18 19 20 21 22 23 24 25 26 27 28 29 30 31 32 33 34 35 36 37 38 39 40 41 42 43 44 45 46 47 48 49 50

000
AXUS43 KGID 052302
MISGRI

GID CWA HOURLY WEATHER ROUNDUP
NATIONAL WEATHER SERVICE HASTINGS NE
500 PM CST THU MAR 05 2015

NOTE: "FAIR" INDICATES FEW OR NO CLOUDS BELOW 12,000 FEET WITH NO
SIGNIFICANT WEATHER AND/OR OBSTRUCTIONS TO VISIBILITY.

...SOUTH CENTRAL NEBRASKA...

CITY           SKY/WX    TMP DP  RH WIND       PRES   REMARKS
GRAND ISLAND   MOSUNNY   39   7  26 SW15      30.29F WCI  31
HASTINGS       MOSUNNY   40   2  20 S10G17    30.28F WCI  33
KEARNEY        PTSUNNY   41  10  28 S9        30.26S
ORD            SUNNY     41   8  25 S13       30.21F
YORK           SUNNY     37   7  28 S16       30.32F WCI  28
AURORA         SUNNY     38   7  27 S12       30.30S WCI  30
LEXINGTON      PTSUNNY   46  10  23 SW14      30.21F
HOLDREGE       PTSUNNY   43   7  22 SW9       30.24F
HEBRON         SUNNY     38   1  20 S7        30.36S WCI  33

...NEBRASKA PANHANDLE...

CITY           SKY/WX    TMP DP  RH WIND       PRES   REMARKS
CHADRON        SUNNY     41  23  48 W16       30.16S
ALLIANCE       SUNNY     45  11  25 W20       30.15R
SCOTTSBLUFF    SUNNY     45  14  28 W18       30.19R
SIDNEY         MOSUNNY   43  14  31 W18G25    30.19S

...WESTERN AND NORTH CENTRAL NEBRASKA...

CITY           SKY/WX    TMP DP  RH WIND       PRES   REMARKS
VALENTINE      PTSUNNY   45   9  23 W13       30.14S
AINSWORTH      CLOUDY    44   8  23 W9G20     30.15S
ONEILL         SUNNY     41   5  21 S14       30.20F
BROKEN BOW     SUNNY     45  13  27 SW15      30.19F
IMPERIAL         N/A     47  12  24 W16G24    30.19S
NORTH PLATTE   MOSUNNY   49   6  17 W13       30.17F
MCCOOK         PTSUNNY   50  10  20 W14       30.20S

...EASTERN NEBRASKA...

CITY           SKY/WX    TMP DP  RH WIND       PRES   REMARKS
NORFOLK        SUNNY     35   6  29 S16       30.29S WCI  25
SO SIOUX CITY  SUNNY     33   4  29 S13       30.35F WCI  24
TEKAMAH        SUNNY     32   5  32 S17       30.39F WCI  21
COLUMBUS       SUNNY     36   7  30 S15       30.34S WCI  26
ALBION         SUNNY     38   6  26 SW12      30.27S WCI  30
OMAHA EPPLEY   MOSUNNY   30   5  34 S12       30.42F WCI  20
OFFUTT AFB     SUNNY     31   4  32 S10       30.40F WCI  22
MILLARD        SUNNY     32   5  31 S9        30.41F WCI  24
LINCOLN        SUNNY     35   6  29 S13       30.39F WCI  26
NEBRASKA CITY  SUNNY     32  -4  21 SW12      30.42F WCI  23
BEATRICE       SUNNY     35   7  30 S10       30.39S WCI  27
FALLS CITY     SUNNY     32   4  30 S8        30.45F WCI  25

...NORTHERN KANSAS...

CITY           SKY/WX    TMP DP  RH WIND       PRES   REMARKS
GOODLAND       PTSUNNY   45  12  26 SW16      30.24S
HILL CITY      PTSUNNY   49   5  16 W10       30.28S
NORTON         CLEAR     48   0  13 SW7       30.23F
PHILLIPSBURG   SUNNY     48   1  14 S9        30.28F
SMITH CENTER   SUNNY     43   5  21 S7        30.31F
BELOIT         SUNNY     45   3  18 S6        30.34F
HAYS           SUNNY     46   5  18 SW8       30.31F
RUSSELL        SUNNY     44   2  17 SW9       30.32S
CONCORDIA      SUNNY     40   6  24 S5        30.36F
SALINA         SUNNY     45   3  17 S8        30.38F
TOPEKA         SUNNY     36   8  31 S6        30.47F WCI  31



USA.gov is the U.S. government's official web portal to all federal, state and local government web resources and services.